Time,TemperatureF,DewpointF,PressureIn,WindDirection,WindDirectionDegrees,WindSpeedMPH,WindSpeedGustMPH,Humidity,HourlyPrecipIn,Conditions,Clouds,dailyrainin,SoftwareType,DateUTC
2013-01-15 00:05:00,13.8,6.8,30.39,SW,225,0.0,0.0,73,0.00,,,0.00,WUHU21023XXSP,2013-01-15 06:05:00,
2013-01-15 00:12:00,13.6,6.6,30.40,SW,225,0.0,0.0,73,0.00,,,0.00,WUHU21023XXSP,2013-01-15 06:12:00,
2013-01-15 00:18:00,13.6,6.9,30.39,SW,225,0.0,0.0,74,0.00,,,0.00,WUHU21023XXSP,2013-01-15 06:18:00,
2013-01-15 00:25:00,13.6,6.9,30.39,SW,225,0.0,0.0,74,0.00,,,0.00,WUHU21023XXSP,2013-01-15 06:25:00,
2013-01-15 00:31:00,13.6,6.9,30.39,SW,225,0.0,0.0,74,0.00,,,0.00,WUHU21023XXSP,2013-01-15 06:31:00,
2013-01-15 00:38:00,13.6,6.9,30.39,SW,225,0.0,0.0,74,0.00,,,0.00,WUHU21023XXSP,2013-01-15 06:38:00,
2013-01-15 00:44:00,13.6,6.9,30.39,SW,225,0.0,0.0,74,0.00,,,0.00,WUHU21023XXSP,2013-01-15 06:44:00,
2013-01-15 00:50:00,13.3,6.5,30.39,SW,225,0.0,0.0,74,0.00,,,0.00,WUHU21023XXSP,2013-01-15 06:50:00,
2013-01-15 00:57:00,13.3,6.5,30.38,SW,225,0.0,0.0,74,0.00,,,0.00,WUHU21023XXSP,2013-01-15 06:57:00,
2013-01-15 01:03:00,13.1,6.6,30.39,SW,225,0.0,0.0,75,0.00,,,0.00,WUHU21023XXSP,2013-01-15 07:03:00,
2013-01-15 01:10:00,12.9,6.4,30.39,SW,225,0.0,0.0,75,0.00,,,0.00,WUHU21023XXSP,2013-01-15 07:10:00,
2013-01-15 01:16:00,12.7,6.3,30.39,SW,225,0.0,0.0,75,0.00,,,0.00,WUHU21023XXSP,2013-01-15 07:16:00,
2013-01-15 01:22:00,12.7,6.3,30.39,SW,225,0.0,0.0,75,0.00,,,0.00,WUHU21023XXSP,2013-01-15 07:22:00,
2013-01-15 01:29:00,12.7,6.3,30.39,SW,225,0.0,0.0,75,0.00,,,0.00,WUHU21023XXSP,2013-01-15 07:29:00,
2013-01-15 01:35:00,12.6,6.1,30.40,SW,225,0.0,0.0,75,0.00,,,0.00,WUHU21023XXSP,2013-01-15 07:35:00,
2013-01-15 01:42:00,12.7,6.3,30.40,SW,225,0.0,0.0,75,0.00,,,0.00,WUHU21023XXSP,2013-01-15 07:42:00,
2013-01-15 01:48:00,12.7,6.5,30.40,SW,225,0.0,0.0,76,0.00,,,0.00,WUHU21023XXSP,2013-01-15 07:48:00,
2013-01-15 01:55:00,12.7,6.5,30.40,SW,225,0.0,0.0,76,0.00,,,0.00,WUHU21023XXSP,2013-01-15 07:55:00,
2013-01-15 02:01:00,12.6,6.4,30.40,SW,225,0.0,0.0,76,0.00,,,0.00,WUHU21023XXSP,2013-01-15 08:01:00,
2013-01-15 02:07:00,12.4,6.2,30.40,SW,225,0.0,0.0,76,0.00,,,0.00,WUHU21023XXSP,2013-01-15 08:07:00,
2013-01-15 02:14:00,12.2,6.0,30.40,SW,225,0.0,0.0,76,0.00,,,0.00,WUHU21023XXSP,2013-01-15 08:14:00,
2013-01-15 02:20:00,12.0,5.8,30.40,SW,225,0.0,0.0,76,0.00,,,0.00,WUHU21023XXSP,2013-01-15 08:20:00,
2013-01-15 02:27:00,12.0,5.8,30.40,SW,225,0.0,0.0,76,0.00,,,0.00,WUHU21023XXSP,2013-01-15 08:27:00,
2013-01-15 02:33:00,12.0,6.1,30.41,SW,225,0.0,0.0,77,0.00,,,0.00,WUHU21023XXSP,2013-01-15 08:33:00,
2013-01-15 02:40:00,12.0,6.1,30.40,SW,225,0.0,0.0,77,0.00,,,0.00,WUHU21023XXSP,2013-01-15 08:40:00,
2013-01-15 02:46:00,12.0,6.1,30.40,SW,225,0.0,0.0,77,0.00,,,0.00,WUHU21023XXSP,2013-01-15 08:46:00,
2013-01-15 02:52:00,12.0,6.1,30.40,SW,225,0.0,0.0,77,0.00,,,0.00,WUHU21023XXSP,2013-01-15 08:52:00,
2013-01-15 02:59:00,12.0,6.1,30.39,SW,225,0.0,0.0,78,0.00,,,0.00,WUHU21023XXSP,2013-01-15 08:59:00,
2013-01-15 03:05:00,12.2,6.6,30.40,SW,225,0.0,0.0,78,0.00,,,0.00,WUHU21023XXSP,2013-01-15 09:05:00,
2013-01-15 03:12:00,12.2,6.6,30.39,SW,225,0.0,0.0,78,0.00,,,0.00,WUHU21023XXSP,2013-01-15 09:12:00,
2013-01-15 03:18:00,12.0,6.4,30.39,SW,225,0.0,0.0,78,0.00,,,0.00,WUHU21023XXSP,2013-01-15 09:18:00,
2013-01-15 03:25:00,12.0,6.4,30.39,SW,225,0.0,0.0,78,0.00,,,0.00,WUHU21023XXSP,2013-01-15 09:25:00,
2013-01-15 03:31:00,12.0,6.4,30.39,SW,225,0.0,0.0,78,0.00,,,0.00,WUHU21023XXSP,2013-01-15 09:31:00,
2013-01-15 03:37:00,12.0,6.1,30.38,SW,225,0.0,0.0,77,0.00,,,0.00,WUHU21023XXSP,2013-01-15 09:37:00,
2013-01-15 03:44:00,12.0,6.4,30.38,SW,225,0.0,0.0,78,0.00,,,0.00,WUHU21023XXSP,2013-01-15 09:44:00,
2013-01-15 03:50:00,11.8,6.2,30.38,SW,225,0.0,0.0,78,0.00,,,0.00,WUHU21023XXSP,2013-01-15 09:50:00,
2013-01-15 03:57:00,11.7,6.0,30.38,SW,225,0.0,0.0,78,0.00,,,0.00,WUHU21023XXSP,2013-01-15 09:57:00,
2013-01-15 04:03:00,11.7,6.0,30.38,SW,225,0.0,0.0,78,0.00,,,0.00,WUHU21023XXSP,2013-01-15 10:03:00,
2013-01-15 04:10:00,11.7,6.0,30.38,SW,225,0.0,0.0,78,0.00,,,0.00,WUHU21023XXSP,2013-01-15 10:10:00,
2013-01-15 04:16:00,11.5,5.9,30.38,SW,225,0.0,0.0,78,0.00,,,0.00,WUHU21023XXSP,2013-01-15 10:16:00,
2013-01-15 04:22:00,11.7,5.9,30.38,SW,225,0.0,0.0,78,0.00,,,0.00,WUHU21023XXSP,2013-01-15 10:22:00,
2013-01-15 04:29:00,11.7,6.0,30.37,SW,225,0.0,0.0,78,0.00,,,0.00,WUHU21023XXSP,2013-01-15 10:29:00,
2013-01-15 04:35:00,11.5,5.9,30.37,SW,225,0.0,0.0,78,0.00,,,0.00,WUHU21023XXSP,2013-01-15 10:35:00,
2013-01-15 04:42:00,11.5,5.9,30.37,SW,225,0.0,0.0,78,0.00,,,0.00,WUHU21023XXSP,2013-01-15 10:42:00,
2013-01-15 04:48:00,11.3,5.7,30.37,SW,225,0.0,0.0,78,0.00,,,0.00,WUHU21023XXSP,2013-01-15 10:48:00,
2013-01-15 04:55:00,11.3,5.7,30.37,SW,225,0.0,0.0,78,0.00,,,0.00,WUHU21023XXSP,2013-01-15 10:55:00,
2013-01-15 05:01:00,11.3,5.7,30.37,SW,225,0.0,0.0,78,0.00,,,0.00,WUHU21023XXSP,2013-01-15 11:01:00,
2013-01-15 05:07:00,11.1,5.5,30.37,SW,225,0.0,0.0,78,0.00,,,0.00,WUHU21023XXSP,2013-01-15 11:07:00,
2013-01-15 05:14:00,11.1,5.5,30.37,SW,225,0.0,0.0,78,0.00,,,0.00,WUHU21023XXSP,2013-01-15 11:14:00,
2013-01-15 05:20:00,10.9,5.3,30.37,SW,225,0.0,0.0,78,0.00,,,0.00,WUHU21023XXSP,2013-01-15 11:20:00,
2013-01-15 05:27:00,10.6,5.0,30.36,SW,225,0.0,0.0,78,0.00,,,0.00,WUHU21023XXSP,2013-01-15 11:27:00,
2013-01-15 05:33:00,10.6,5.0,30.36,SW,225,0.0,0.0,78,0.00,,,0.00,WUHU21023XXSP,2013-01-15 11:33:00,
2013-01-15 05:40:00,10.6,5.0,30.36,SW,225,0.0,0.0,78,0.00,,,0.00,WUHU21023XXSP,2013-01-15 11:40:00,
2013-01-15 05:46:00,10.2,4.9,30.36,SW,225,0.0,0.0,79,0.00,,,0.00,WUHU21023XXSP,2013-01-15 11:46:00,
2013-01-15 05:52:00,10.2,4.9,30.36,SW,225,0.0,0.0,79,0.00,,,0.00,WUHU21023XXSP,2013-01-15 11:52:00,
2013-01-15 05:59:00,10.2,4.9,30.36,SW,225,0.0,0.0,79,0.00,,,0.00,WUHU21023XXSP,2013-01-15 11:59:00,
2013-01-15 06:05:00,10.2,4.9,30.36,SW,225,0.0,0.0,79,0.00,,,0.00,WUHU21023XXSP,2013-01-15 12:05:00,
2013-01-15 06:12:00,10.2,4.9,30.36,SW,225,0.0,0.0,79,0.00,,,0.00,WUHU21023XXSP,2013-01-15 12:12:00,
2013-01-15 06:18:00,10.2,4.9,30.36,SW,225,0.0,0.0,79,0.00,,,0.00,WUHU21023XXSP,2013-01-15 12:18:00,
2013-01-15 06:25:00,10.2,4.9,30.37,SW,225,0.0,0.0,79,0.00,,,0.00,WUHU21023XXSP,2013-01-15 12:25:00,
2013-01-15 06:31:00,10.6,5.3,30.37,SW,225,0.0,0.0,79,0.00,,,0.00,WUHU21023XXSP,2013-01-15 12:31:00,
2013-01-15 06:37:00,10.6,5.3,30.36,SW,225,0.0,0.0,79,0.00,,,0.00,WUHU21023XXSP,2013-01-15 12:37:00,
2013-01-15 06:44:00,10.4,5.1,30.36,SW,225,0.0,0.0,79,0.00,,,0.00,WUHU21023XXSP,2013-01-15 12:44:00,
2013-01-15 06:50:00,10.2,4.9,30.37,SW,225,0.0,0.0,79,0.00,,,0.00,WUHU21023XXSP,2013-01-15 12:50:00,
2013-01-15 06:57:00,10.2,4.9,30.37,SW,225,0.0,0.0,79,0.00,,,0.00,WUHU21023XXSP,2013-01-15 12:57:00,
2013-01-15 07:03:00,10.0,4.7,30.37,SW,225,0.0,0.0,79,0.00,,,0.00,WUHU21023XXSP,2013-01-15 13:03:00,
2013-01-15 07:09:00,10.0,4.7,30.37,SW,225,0.0,0.0,79,0.00,,,0.00,WUHU21023XXSP,2013-01-15 13:09:00,
2013-01-15 07:16:00,9.7,4.4,30.37,SW,225,0.0,0.0,79,0.00,,,0.00,WUHU21023XXSP,2013-01-15 13:16:00,
2013-01-15 07:22:00,9.7,4.4,30.37,SW,225,0.0,0.0,79,0.00,,,0.00,WUHU21023XXSP,2013-01-15 13:22:00,
2013-01-15 07:29:00,9.7,4.4,30.37,SW,225,0.0,0.0,79,0.00,,,0.00,WUHU21023XXSP,2013-01-15 13:29:00,
2013-01-15 07:35:00,9.7,4.4,30.38,SW,225,0.0,0.0,79,0.00,,,0.00,WUHU21023XXSP,2013-01-15 13:35:00,
2013-01-15 07:42:00,9.7,4.4,30.38,SW,225,0.0,0.0,79,0.00,,,0.00,WUHU21023XXSP,2013-01-15 13:42:00,
2013-01-15 07:48:00,10.0,4.7,30.38,SW,225,0.0,0.0,79,0.00,,,0.00,WUHU21023XXSP,2013-01-15 13:48:00,
2013-01-15 07:54:00,10.0,5.0,30.37,SW,225,0.0,0.0,80,0.00,,,0.00,WUHU21023XXSP,2013-01-15 13:54:00,
2013-01-15 08:01:00,10.0,5.0,30.38,SW,225,0.0,0.0,80,0.00,,,0.00,WUHU21023XXSP,2013-01-15 14:01:00,
2013-01-15 08:07:00,10.2,5.2,30.39,SW,225,0.0,0.0,80,0.00,,,0.00,WUHU21023XXSP,2013-01-15 14:07:00,
2013-01-15 08:14:00,10.2,5.2,30.39,SW,225,0.0,0.0,80,0.00,,,0.00,WUHU21023XXSP,2013-01-15 14:14:00,
2013-01-15 08:20:00,10.6,5.5,30.39,SW,225,0.0,0.0,80,0.00,,,0.00,WUHU21023XXSP,2013-01-15 14:20:00,
2013-01-15 08:27:00,11.1,6.1,30.39,SW,225,0.0,0.0,80,0.00,,,0.00,WUHU21023XXSP,2013-01-15 14:27:00,
2013-01-15 08:33:00,11.5,6.4,30.38,SW,225,0.0,0.0,80,0.00,,,0.00,WUHU21023XXSP,2013-01-15 14:33:00,
2013-01-15 08:39:00,12.0,7.3,30.38,SW,225,0.0,0.0,81,0.00,,,0.00,WUHU21023XXSP,2013-01-15 14:39:00,
2013-01-15 08:46:00,12.7,8.0,30.38,SW,225,0.0,0.0,81,0.00,,,0.00,WUHU21023XXSP,2013-01-15 14:46:00,
2013-01-15 08:52:00,13.3,8.5,30.38,SW,225,0.0,0.0,81,0.00,,,0.00,WUHU21023XXSP,2013-01-15 14:52:00,
2013-01-15 08:59:00,14.2,9.4,30.39,SW,225,0.0,0.0,81,0.00,,,0.00,WUHU21023XXSP,2013-01-15 14:59:00,
2013-01-15 09:05:00,14.9,10.4,30.39,SSE,157,0.0,0.0,82,0.00,,,0.00,WUHU21023XXSP,2013-01-15 15:05:00,
2013-01-15 09:12:00,15.8,11.3,30.39,SE,135,0.0,0.0,82,0.00,,,0.00,WUHU21023XXSP,2013-01-15 15:12:00,
2013-01-15 09:18:00,16.5,11.9,30.39,SE,135,0.0,0.0,82,0.00,,,0.00,WUHU21023XXSP,2013-01-15 15:18:00,
2013-01-15 09:24:00,17.4,12.7,30.39,SE,135,0.0,0.0,82,0.00,,,0.00,WUHU21023XXSP,2013-01-15 15:24:00,
2013-01-15 09:31:00,18.7,13.7,30.39,SE,135,0.0,0.0,81,0.00,,,0.00,WUHU21023XXSP,2013-01-15 15:31:00,
2013-01-15 09:37:00,19.9,14.7,30.39,SE,135,0.0,0.0,80,0.00,,,0.00,WUHU21023XXSP,2013-01-15 15:37:00,
2013-01-15 09:44:00,21.4,15.9,30.38,SE,135,0.0,0.0,79,0.00,,,0.00,WUHU21023XXSP,2013-01-15 15:44:00,
2013-01-15 09:50:00,22.6,17.1,30.38,SE,135,0.0,0.0,79,0.00,,,0.00,WUHU21023XXSP,2013-01-15 15:50:00,
2013-01-15 09:57:00,23.5,17.7,30.38,SSE,157,0.0,0.0,78,0.00,,,0.00,WUHU21023XXSP,2013-01-15 15:57:00,
2013-01-15 10:03:00,24.4,17.9,30.38,SE,135,0.0,0.0,76,0.00,,,0.00,WUHU21023XXSP,2013-01-15 16:03:00,
2013-01-15 10:09:00,25.2,18.3,30.38,SSE,157,3.0,3.0,75,0.00,,,0.00,WUHU21023XXSP,2013-01-15 16:09:00,
2013-01-15 10:16:00,25.7,18.2,30.38,SW,225,7.0,7.0,73,0.00,,,0.00,WUHU21023XXSP,2013-01-15 16:16:00,
2013-01-15 10:22:00,25.7,17.9,30.38,South,180,3.0,7.0,72,0.00,,,0.00,WUHU21023XXSP,2013-01-15 16:22:00,
2013-01-15 10:29:00,26.1,17.9,30.37,SSW,202,0.0,3.0,71,0.00,,,0.00,WUHU21023XXSP,2013-01-15 16:29:00,
2013-01-15 10:35:00,26.4,18.0,30.37,South,180,0.0,0.0,70,0.00,,,0.00,WUHU21023XXSP,2013-01-15 16:35:00,
2013-01-15 10:41:00,27.0,18.5,30.37,SSE,157,0.0,0.0,70,0.00,,,0.00,WUHU21023XXSP,2013-01-15 16:41:00,
2013-01-15 10:48:00,27.7,18.9,30.36,South,180,0.0,7.0,69,0.00,,,0.00,WUHU21023XXSP,2013-01-15 16:48:00,
2013-01-15 10:54:00,28.2,18.7,30.35,SW,225,0.0,7.0,67,0.00,,,0.00,WUHU21023XXSP,2013-01-15 16:54:00,
2013-01-15 11:01:00,28.8,19.2,30.34,SW,225,0.0,4.0,67,0.00,,,0.00,WUHU21023XXSP,2013-01-15 17:01:00,
2013-01-15 11:07:00,29.1,18.8,30.34,SSW,202,0.0,0.0,65,0.00,,,0.00,WUHU21023XXSP,2013-01-15 17:07:00,
2013-01-15 11:14:00,29.1,18.4,30.33,South,180,0.0,3.0,64,0.00,,,0.00,WUHU21023XXSP,2013-01-15 17:14:00,
2013-01-15 11:20:00,29.3,18.6,30.32,South,180,0.0,0.0,64,0.00,,,0.00,WUHU21023XXSP,2013-01-15 17:20:00,
2013-01-15 11:26:00,29.5,18.0,30.31,SSW,202,5.0,7.0,62,0.00,,,0.00,WUHU21023XXSP,2013-01-15 17:26:00,
2013-01-15 11:33:00,29.3,17.9,30.31,South,180,0.0,7.0,62,0.00,,,0.00,WUHU21023XXSP,2013-01-15 17:33:00,
2013-01-15 11:39:00,29.5,17.7,30.31,SSW,202,0.0,2.0,61,0.00,,,0.00,WUHU21023XXSP,2013-01-15 17:39:00,
2013-01-15 11:46:00,29.7,17.1,30.31,WSW,247,4.0,6.0,59,0.00,,,0.00,WUHU21023XXSP,2013-01-15 17:46:00,
2013-01-15 11:52:00,29.3,16.3,30.31,South,180,2.0,6.0,58,0.00,,,0.00,WUHU21023XXSP,2013-01-15 17:52:00,
2013-01-15 11:59:00,29.1,16.2,30.31,SW,225,0.0,10.0,58,0.00,,,0.00,WUHU21023XXSP,2013-01-15 17:59:00,
2013-01-15 12:05:00,29.1,16.2,30.31,SE,135,6.0,7.0,58,0.00,,,0.00,WUHU21023XXSP,2013-01-15 18:05:00,
2013-01-15 12:11:00,29.1,16.2,30.31,SW,225,7.0,10.0,58,0.00,,,0.00,WUHU21023XXSP,2013-01-15 18:11:00,
2013-01-15 12:18:00,29.3,16.3,30.32,SSW,202,0.0,7.0,58,0.00,,,0.00,WUHU21023XXSP,2013-01-15 18:18:00,
2013-01-15 12:24:00,29.5,15.7,30.31,SSW,202,1.0,6.0,56,0.00,,,0.00,WUHU21023XXSP,2013-01-15 18:24:00,
2013-01-15 12:31:00,29.8,16.4,30.31,South,180,0.0,5.0,57,0.00,,,0.00,WUHU21023XXSP,2013-01-15 18:31:00,
2013-01-15 12:37:00,30.0,16.1,30.31,SSW,202,7.0,8.0,56,0.00,,,0.00,WUHU21023XXSP,2013-01-15 18:37:00,
2013-01-15 12:44:00,30.4,16.1,30.30,South,180,0.0,9.0,55,0.00,,,0.00,WUHU21023XXSP,2013-01-15 18:44:00,
2013-01-15 12:50:00,30.4,16.5,30.29,SW,225,0.0,7.0,56,0.00,,,0.00,WUHU21023XXSP,2013-01-15 18:50:00,
2013-01-15 12:56:00,30.4,16.1,30.29,SW,225,6.0,6.0,55,0.00,,,0.00,WUHU21023XXSP,2013-01-15 18:56:00,
2013-01-15 13:03:00,30.0,15.7,30.29,SW,225,10.0,10.0,55,0.00,,,0.00,WUHU21023XXSP,2013-01-15 19:03:00,
2013-01-15 13:09:00,30.4,15.6,30.28,WSW,247,7.0,10.0,54,0.00,,,0.00,WUHU21023XXSP,2013-01-15 19:09:00,
2013-01-15 13:16:00,30.6,15.8,30.27,SSW,202,0.0,9.0,54,0.00,,,0.00,WUHU21023XXSP,2013-01-15 19:16:00,
2013-01-15 13:22:00,30.7,16.0,30.27,WSW,247,7.0,7.0,54,0.00,,,0.00,WUHU21023XXSP,2013-01-15 19:22:00,
2013-01-15 13:29:00,30.7,15.5,30.27,SSW,202,0.0,12.0,53,0.00,,,0.00,WUHU21023XXSP,2013-01-15 19:29:00,
2013-01-15 13:35:00,30.7,15.1,30.26,SSW,202,0.0,11.0,52,0.00,,,0.00,WUHU21023XXSP,2013-01-15 19:35:00,
2013-01-15 13:41:00,30.6,15.4,30.26,SW,225,0.0,3.0,53,0.00,,,0.00,WUHU21023XXSP,2013-01-15 19:41:00,
2013-01-15 13:48:00,30.7,15.5,30.26,SSW,202,3.0,4.0,53,0.00,,,0.00,WUHU21023XXSP,2013-01-15 19:48:00,
2013-01-15 13:54:00,30.9,15.7,30.25,SW,225,0.0,3.0,53,0.00,,,0.00,WUHU21023XXSP,2013-01-15 19:54:00,
2013-01-15 14:01:00,31.6,16.4,30.25,SW,225,0.0,0.0,53,0.00,,,0.00,WUHU21023XXSP,2013-01-15 20:01:00,
2013-01-15 14:07:00,32.2,16.9,30.25,West,270,0.0,0.0,53,0.00,,,0.00,WUHU21023XXSP,2013-01-15 20:07:00,
2013-01-15 14:14:00,32.7,17.0,30.24,SW,225,6.0,6.0,52,0.00,,,0.00,WUHU21023XXSP,2013-01-15 20:14:00,
2013-01-15 14:20:00,33.1,17.3,30.25,SSW,202,0.0,6.0,52,0.00,,,0.00,WUHU21023XXSP,2013-01-15 20:20:00,
2013-01-15 14:26:00,33.6,17.3,30.25,SSW,202,6.0,6.0,51,0.00,,,0.00,WUHU21023XXSP,2013-01-15 20:26:00,
2013-01-15 14:33:00,33.8,17.1,30.25,SW,225,4.0,7.0,50,0.00,,,0.00,WUHU21023XXSP,2013-01-15 20:33:00,
2013-01-15 14:39:00,33.6,16.9,30.25,SSW,202,2.0,5.0,50,0.00,,,0.00,WUHU21023XXSP,2013-01-15 20:39:00,
2013-01-15 14:46:00,33.8,17.1,30.24,West,270,0.0,5.0,50,0.00,,,0.00,WUHU21023XXSP,2013-01-15 20:46:00,
2013-01-15 14:52:00,34.2,17.4,30.24,WSW,247,9.0,9.0,50,0.00,,,0.00,WUHU21023XXSP,2013-01-15 20:52:00,
2013-01-15 14:59:00,34.2,16.9,30.24,SSW,202,1.0,9.0,49,0.00,,,0.00,WUHU21023XXSP,2013-01-15 20:59:00,
2013-01-15 15:05:00,34.2,17.4,30.24,SW,225,0.0,7.0,50,0.00,,,0.00,WUHU21023XXSP,2013-01-15 21:05:00,
2013-01-15 15:11:00,34.3,17.1,30.24,SSW,202,7.0,7.0,49,0.00,,,0.00,WUHU21023XXSP,2013-01-15 21:11:00,
2013-01-15 15:18:00,34.0,16.7,30.23,South,180,0.0,7.0,49,0.00,,,0.00,WUHU21023XXSP,2013-01-15 21:18:00,
2013-01-15 15:24:00,33.6,16.4,30.24,SSW,202,3.0,6.0,49,0.00,,,0.00,WUHU21023XXSP,2013-01-15 21:24:00,
2013-01-15 15:31:00,33.3,16.1,30.24,SSW,202,0.0,4.0,49,0.00,,,0.00,WUHU21023XXSP,2013-01-15 21:31:00,
2013-01-15 15:37:00,32.7,16.1,30.24,SSW,202,0.0,5.0,50,0.00,,,0.00,WUHU21023XXSP,2013-01-15 21:37:00,
2013-01-15 15:43:00,32.2,15.6,30.24,SW,225,1.0,1.0,50,0.00,,,0.00,WUHU21023XXSP,2013-01-15 21:43:00,
2013-01-15 15:50:00,31.6,15.5,30.24,SSE,157,0.0,7.0,51,0.00,,,0.00,WUHU21023XXSP,2013-01-15 21:50:00,
2013-01-15 15:56:00,30.9,14.9,30.24,SSW,202,0.0,4.0,51,0.00,,,0.00,WUHU21023XXSP,2013-01-15 21:56:00,
2013-01-15 16:03:00,30.4,14.8,30.24,South,180,3.0,3.0,52,0.00,,,0.00,WUHU21023XXSP,2013-01-15 22:03:00,
2013-01-15 16:09:00,29.8,14.7,30.24,SSE,157,0.0,3.0,53,0.00,,,0.00,WUHU21023XXSP,2013-01-15 22:09:00,
2013-01-15 16:16:00,29.3,14.3,30.24,SE,135,0.0,1.0,53,0.00,,,0.00,WUHU21023XXSP,2013-01-15 22:16:00,
2013-01-15 16:22:00,28.8,14.2,30.24,South,180,6.0,6.0,54,0.00,,,0.00,WUHU21023XXSP,2013-01-15 22:22:00,
2013-01-15 16:28:00,28.2,13.7,30.24,SSW,202,0.0,6.0,54,0.00,,,0.00,WUHU21023XXSP,2013-01-15 22:28:00,
2013-01-15 16:35:00,28.0,13.9,30.24,SSW,202,0.0,0.0,55,0.00,,,0.00,WUHU21023XXSP,2013-01-15 22:35:00,
2013-01-15 16:41:00,27.7,14.0,30.24,SSW,202,0.0,0.0,56,0.00,,,0.00,WUHU21023XXSP,2013-01-15 22:41:00,
2013-01-15 16:48:00,27.5,13.8,30.24,South,180,9.0,9.0,56,0.00,,,0.00,WUHU21023XXSP,2013-01-15 22:48:00,
2013-01-15 16:54:00,27.3,14.0,30.23,SSW,202,0.0,9.0,57,0.00,,,0.00,WUHU21023XXSP,2013-01-15 22:54:00,
2013-01-15 17:01:00,27.1,14.3,30.23,South,180,0.0,0.0,58,0.00,,,0.00,WUHU21023XXSP,2013-01-15 23:01:00,
2013-01-15 17:07:00,26.8,13.9,30.23,South,180,0.0,0.0,58,0.00,,,0.00,WUHU21023XXSP,2013-01-15 23:07:00,
2013-01-15 17:13:00,26.4,13.6,30.23,South,180,0.0,0.0,58,0.00,,,0.00,WUHU21023XXSP,2013-01-15 23:13:00,
2013-01-15 17:20:00,26.4,14.0,30.23,SSW,202,3.0,3.0,59,0.00,,,0.00,WUHU21023XXSP,2013-01-15 23:20:00,
2013-01-15 17:26:00,26.2,13.8,30.23,SSW,202,0.0,3.0,59,0.00,,,0.00,WUHU21023XXSP,2013-01-15 23:26:00,
2013-01-15 17:33:00,25.9,13.9,30.23,SSW,202,0.0,0.0,60,0.00,,,0.00,WUHU21023XXSP,2013-01-15 23:33:00,
2013-01-15 17:39:00,25.7,13.7,30.24,SSW,202,0.0,0.0,60,0.00,,,0.00,WUHU21023XXSP,2013-01-15 23:39:00,
2013-01-15 17:45:00,25.5,13.6,30.23,SSW,202,0.0,0.0,60,0.00,,,0.00,WUHU21023XXSP,2013-01-15 23:45:00,
2013-01-15 17:52:00,25.3,13.4,30.23,SW,225,0.0,0.0,60,0.00,,,0.00,WUHU21023XXSP,2013-01-15 23:52:00,
2013-01-15 17:58:00,25.2,13.6,30.23,SSW,202,0.0,0.0,61,0.00,,,0.00,WUHU21023XXSP,2013-01-15 23:58:00,
2013-01-15 18:05:00,25.0,13.4,30.23,South,180,0.0,0.0,61,0.00,,,0.00,WUHU21023XXSP,2013-01-16 00:05:00,
2013-01-15 18:11:00,24.6,13.4,30.23,SSW,202,0.0,0.0,62,0.00,,,0.00,WUHU21023XXSP,2013-01-16 00:11:00,
2013-01-15 18:18:00,24.6,13.4,30.22,SSW,202,0.0,0.0,62,0.00,,,0.00,WUHU21023XXSP,2013-01-16 00:18:00,
2013-01-15 18:24:00,24.4,13.2,30.22,SSW,202,0.0,0.0,62,0.00,,,0.00,WUHU21023XXSP,2013-01-16 00:24:00,
2013-01-15 18:31:00,24.4,13.2,30.22,South,180,0.0,0.0,62,0.00,,,0.00,WUHU21023XXSP,2013-01-16 00:31:00,
2013-01-15 18:37:00,24.1,13.2,30.22,SSE,157,0.0,0.0,63,0.00,,,0.00,WUHU21023XXSP,2013-01-16 00:37:00,
2013-01-15 18:43:00,23.9,13.1,30.21,SSE,157,0.0,0.0,63,0.00,,,0.00,WUHU21023XXSP,2013-01-16 00:43:00,
2013-01-15 18:50:00,23.7,12.9,30.21,SSE,157,0.0,0.0,63,0.00,,,0.00,WUHU21023XXSP,2013-01-16 00:50:00,
2013-01-15 18:56:00,23.5,13.1,30.21,SSW,202,0.0,0.0,64,0.00,,,0.00,WUHU21023XXSP,2013-01-16 00:56:00,
2013-01-15 19:03:00,23.5,13.1,30.20,SSW,202,0.0,0.0,64,0.00,,,0.00,WUHU21023XXSP,2013-01-16 01:03:00,
2013-01-15 19:09:00,23.2,12.7,30.19,SSW,202,0.0,0.0,64,0.00,,,0.00,WUHU21023XXSP,2013-01-16 01:09:00,
2013-01-15 19:16:00,23.2,12.7,30.19,SSW,202,0.0,0.0,64,0.00,,,0.00,WUHU21023XXSP,2013-01-16 01:16:00,
2013-01-15 19:22:00,22.8,12.7,30.19,SSW,202,0.0,0.0,65,0.00,,,0.00,WUHU21023XXSP,2013-01-16 01:22:00,
2013-01-15 19:28:00,22.8,12.7,30.19,South,180,0.0,0.0,65,0.00,,,0.00,WUHU21023XXSP,2013-01-16 01:28:00,
2013-01-15 19:35:00,22.6,12.6,30.18,SSW,202,0.0,0.0,65,0.00,,,0.00,WUHU21023XXSP,2013-01-16 01:35:00,
2013-01-15 19:41:00,22.5,12.4,30.18,SSW,202,0.0,0.0,65,0.00,,,0.00,WUHU21023XXSP,2013-01-16 01:41:00,
2013-01-15 19:48:00,22.1,12.4,30.18,SSW,202,0.0,0.0,66,0.00,,,0.00,WUHU21023XXSP,2013-01-16 01:48:00,
2013-01-15 19:54:00,22.1,12.4,30.17,SSW,202,0.0,0.0,66,0.00,,,0.00,WUHU21023XXSP,2013-01-16 01:54:00,
2013-01-15 20:00:00,21.9,12.2,30.17,South,180,0.0,1.0,66,0.00,,,0.00,WUHU21023XXSP,2013-01-16 02:00:00,
2013-01-15 20:07:00,21.9,12.2,30.17,SSW,202,0.0,0.0,66,0.00,,,0.00,WUHU21023XXSP,2013-01-16 02:07:00,
2013-01-15 20:13:00,21.7,12.1,30.16,SSW,202,0.0,0.0,66,0.00,,,0.00,WUHU21023XXSP,2013-01-16 02:13:00,
2013-01-15 20:20:00,21.7,12.1,30.16,SSW,202,0.0,2.0,66,0.00,,,0.00,WUHU21023XXSP,2013-01-16 02:20:00,
2013-01-15 20:26:00,21.6,11.9,30.16,SSW,202,0.0,2.0,66,0.00,,,0.00,WUHU21023XXSP,2013-01-16 02:26:00,
2013-01-15 20:33:00,21.4,12.1,30.16,SSW,202,0.0,0.0,67,0.00,,,0.00,WUHU21023XXSP,2013-01-16 02:33:00,
2013-01-15 20:39:00,21.4,12.1,30.15,SSW,202,0.0,0.0,67,0.00,,,0.00,WUHU21023XXSP,2013-01-16 02:39:00,
2013-01-15 20:45:00,21.0,11.7,30.16,SSW,202,0.0,0.0,67,0.00,,,0.00,WUHU21023XXSP,2013-01-16 02:45:00,
2013-01-15 20:52:00,21.0,11.7,30.15,SW,225,0.0,0.0,67,0.00,,,0.00,WUHU21023XXSP,2013-01-16 02:52:00,
2013-01-15 20:58:00,20.8,12.1,30.14,SW,225,0.0,0.0,68,0.00,,,0.00,WUHU21023XXSP,2013-01-16 02:58:00,
2013-01-15 21:05:00,20.7,11.7,30.14,SW,225,0.0,0.0,68,0.00,,,0.00,WUHU21023XXSP,2013-01-16 03:05:00,
2013-01-15 21:11:00,20.5,11.5,30.14,SW,225,0.0,0.0,68,0.00,,,0.00,WUHU21023XXSP,2013-01-16 03:11:00,
2013-01-15 21:18:00,20.1,11.2,30.13,SW,225,0.0,0.0,68,0.00,,,0.00,WUHU21023XXSP,2013-01-16 03:18:00,
2013-01-15 21:24:00,19.8,10.8,30.13,SW,225,0.0,0.0,68,0.00,,,0.00,WUHU21023XXSP,2013-01-16 03:24:00,
2013-01-15 21:30:00,19.6,11.0,30.13,SW,225,0.0,0.0,69,0.00,,,0.00,WUHU21023XXSP,2013-01-16 03:30:00,
2013-01-15 21:37:00,19.4,10.8,30.13,SW,225,0.0,0.0,69,0.00,,,0.00,WUHU21023XXSP,2013-01-16 03:37:00,
2013-01-15 21:43:00,19.2,10.6,30.13,SW,225,0.0,0.0,69,0.00,,,0.00,WUHU21023XXSP,2013-01-16 03:43:00,
2013-01-15 21:50:00,19.2,11.0,30.13,SW,225,0.0,0.0,70,0.00,,,0.00,WUHU21023XXSP,2013-01-16 03:50:00,
2013-01-15 21:56:00,19.2,11.0,30.13,SW,225,0.0,0.0,70,0.00,,,0.00,WUHU21023XXSP,2013-01-16 03:56:00,
2013-01-15 22:03:00,19.0,10.8,30.12,SW,225,0.0,0.0,70,0.00,,,0.00,WUHU21023XXSP,2013-01-16 04:03:00,
2013-01-15 22:09:00,18.7,10.5,30.12,SW,225,0.0,0.0,70,0.00,,,0.00,WUHU21023XXSP,2013-01-16 04:09:00,
2013-01-15 22:15:00,18.3,10.1,30.12,SW,225,0.0,0.0,70,0.00,,,0.00,WUHU21023XXSP,2013-01-16 04:15:00,
2013-01-15 22:22:00,18.1,10.0,30.12,SW,225,0.0,0.0,70,0.00,,,0.00,WUHU21023XXSP,2013-01-16 04:22:00,
2013-01-15 22:28:00,17.8,9.7,30.12,SW,225,0.0,0.0,70,0.00,,,0.00,WUHU21023XXSP,2013-01-16 04:28:00,
2013-01-15 22:35:00,17.6,9.8,30.12,SW,225,0.0,0.0,71,0.00,,,0.00,WUHU21023XXSP,2013-01-16 04:35:00,
2013-01-15 22:41:00,17.4,9.6,30.11,SW,225,0.0,0.0,71,0.00,,,0.00,WUHU21023XXSP,2013-01-16 04:41:00,
2013-01-15 22:48:00,17.4,9.6,30.11,SW,225,0.0,0.0,71,0.00,,,0.00,WUHU21023XXSP,2013-01-16 04:48:00,
2013-01-15 22:54:00,17.2,9.7,30.11,SW,225,0.0,0.0,72,0.00,,,0.00,WUHU21023XXSP,2013-01-16 04:54:00,
2013-01-15 23:01:00,16.9,9.4,30.11,SW,225,0.0,0.0,72,0.00,,,0.00,WUHU21023XXSP,2013-01-16 05:01:00,
2013-01-15 23:07:00,16.7,9.4,30.09,SW,225,0.0,0.0,72,0.00,,,0.00,WUHU21023XXSP,2013-01-16 05:07:00,
2013-01-15 23:13:00,16.5,9.0,30.09,SW,225,0.0,0.0,72,0.00,,,0.00,WUHU21023XXSP,2013-01-16 05:13:00,
2013-01-15 23:18:00,16.5,9.3,30.09,SW,225,0.0,0.0,73,0.00,,,0.00,WUHU21023XXSP,2013-01-16 05:18:00,
2013-01-15 23:24:00,16.3,9.1,30.09,SW,225,0.0,0.0,73,0.00,,,0.00,WUHU21023XXSP,2013-01-16 05:24:00,
2013-01-15 23:30:00,16.3,9.1,30.09,SW,225,0.0,0.0,73,0.00,,,0.00,WUHU21023XXSP,2013-01-16 05:30:00,
2013-01-15 23:37:00,16.2,9.0,30.08,SW,225,0.0,0.0,73,0.00,,,0.00,WUHU21023XXSP,2013-01-16 05:37:00,
2013-01-15 23:43:00,16.0,9.1,30.08,SW,225,0.0,0.0,74,0.00,,,0.00,WUHU21023XXSP,2013-01-16 05:43:00,
2013-01-15 23:50:00,16.0,9.1,30.08,SW,225,0.0,0.0,74,0.00,,,0.00,WUHU21023XXSP,2013-01-16 05:50:00,
2013-01-15 23:56:00,15.6,8.7,30.08,SW,225,0.0,0.0,74,0.00,,,0.00,WUHU21023XXSP,2013-01-16 05:56:00,